{"data":{"norad_id":52908,"intl_designator":"2022-068B","name":"YAOGAN-35 02B","alt_names":[],"object_type":"PAYLOAD","status":"ACTIVE","operator":null,"country":"PRC","launch_date":"2022-06-23","launch_site_code":"XICLF","launch_vehicle":null,"mission":null,"orbit_class":"UNKNOWN","rcs_meters":null,"size_class":null,"mass_kg":null,"dimensions":null,"purposes":[],"wikipedia_slug":null,"has_3d_model":false,"image_url":null,"decayed_at":null,"tle_current":{"epoch":"2026-09-20T23:18:25.817760Z","epoch_age_seconds":93741,"freshness":"FRESH","line1":"1 52908U 22068B   26263.97113215  .00198051  00000+0  91017-3 0  9994","line2":"2 52908  34.9893 131.9826 0008471 318.3797  41.6290 15.82024897237752","mean_motion":15.82024897,"eccentricity":0.0008471,"inclination_deg":34.9893,"raan_deg":131.9826,"arg_perigee_deg":318.3797,"mean_anomaly_deg":41.629,"bstar":0.00091017,"rev_number":23775,"period_min":91.022587743763,"perigee_km":319.03704260302,"apogee_km":330.3930145098,"semimajor_km":6702.8520285564,"source":"CELESTRAK","updated_at":"2026-09-21T09:00:08.762390Z"}}}